| time (UTC) | temp F | wind direction | speed knots | gust knots | rain 1hr in | rain 24hr in | rain mn in | humidity % | barometer mb |
| 20260506044512 | 54 | 235 | 11.3 | 20.0 | 0.00 | 0.00 | 0.00 | 90 | 1013.5 |
| 20260506043015 | 54 | 124 | 9.6 | 16.5 | 0.00 | 0.00 | 0.00 | 90 | 1013.5 |
| 20260506041512 | 54 | 124 | 8.7 | 14.8 | 0.00 | 0.00 | 0.00 | 90 | 1013.4 |
| 20260506040011 | 54 | 263 | 8.7 | 16.5 | 0.00 | 0.00 | 0.00 | 90 | 1013.5 |
| 20260506034605 | 54 | 261 | 7.8 | 13.9 | 0.00 | 0.00 | 0.00 | 90 | 1013.6 |
| 20260506033115 | 54 | 280 | 10.4 | 17.4 | 0.00 | 0.00 | 0.00 | 89 | 1013.5 |
| 20260506031515 | 54 | 262 | 8.7 | 20.0 | 0.00 | 0.00 | 0.00 | 89 | 1013.4 |
| 20260506030021 | 54 | 260 | 12.2 | 16.5 | 0.00 | 0.00 | 0.00 | 89 | 1013.2 |
| 20260506024611 | 54 | 124 | 11.3 | 17.4 | 0.00 | 0.00 | 0.00 | 88 | 1013.2 |
| 20260506023100 | 54 | 258 | 8.7 | 15.6 | 0.00 | 0.00 | 0.00 | 87 | 1013.1 |
| 20260506021616 | 54 | 124 | 8.7 | 16.5 | 0.00 | 0.00 | 0.00 | 86 | 1013.2 |
| 20260506020009 | 54 | 221 | 9.6 | 15.6 | 0.00 | 0.00 | 0.00 | 85 | 1013.3 |
| 20260506014511 | 54 | 253 | 9.6 | 15.6 | 0.00 | 0.00 | 0.00 | 85 | 1013.3 |
| 20260506013101 | 54 | 265 | 8.7 | 13.9 | 0.00 | 0.00 | 0.00 | 85 | 1013.3 |
| 20260506011529 | 55 | 262 | 6.1 | 13.0 | 0.00 | 0.00 | 0.00 | 85 | 1013.3 |
| 20260506010035 | 54 | 265 | 5.2 | 13.0 | 0.00 | 0.00 | 0.00 | 85 | 1013.3 |
| 20260506004555 | 54 | 267 | 4.3 | 12.2 | 0.00 | 0.00 | 0.00 | 86 | 1013.0 |
| 20260506003018 | 54 | 124 | 7.0 | 13.9 | 0.00 | 0.00 | 0.00 | 87 | 1012.3 |
| 20260506001509 | 54 | 124 | 6.1 | 13.0 | 0.00 | 0.00 | 0.00 | 87 | 1011.8 |
| 20260506000022 | 54 | 258 | 9.6 | 15.6 | 0.00 | 0.00 | 0.00 | 87 | 1011.8 |
| 20260505234531 | 54 | 281 | 10.4 | 15.6 | 0.00 | 0.00 | 0.00 | 86 | 1011.8 |
| 20260505233015 | 55 | 263 | 6.1 | 13.9 | 0.00 | 0.00 | 0.00 | 86 | 1011.9 |
| 20260505231614 | 55 | 269 | 8.7 | 14.8 | 0.00 | 0.00 | 0.00 | 87 | 1011.5 |
| 20260505230056 | 54 | 124 | 7.8 | 17.4 | 0.00 | 0.00 | 0.00 | 87 | 1011.4 |
| 20260505224604 | 54 | 124 | 10.4 | 15.6 | 0.00 | 0.00 | 0.00 | 87 | 1011.3 |
| 20260505223051 | 55 | 268 | 9.6 | 14.8 | 0.00 | 0.00 | 0.00 | 86 | 1011.4 |
| 20260505221551 | 55 | 258 | 8.7 | 15.6 | 0.00 | 0.00 | 0.00 | 85 | 1011.2 |
| 20260505220027 | 56 | 260 | 11.3 | 18.2 | 0.00 | 0.00 | 0.00 | 84 | 1011.3 |
| 20260505214519 | 56 | 220 | 8.7 | 17.4 | 0.00 | 0.00 | 0.00 | 84 | 1011.2 |
| 20260505213003 | 56 | 246 | 8.7 | 20.9 | 0.00 | 0.00 | 0.00 | 84 | 1011.3 |
| 20260505211505 | 56 | 217 | 12.2 | 20.9 | 0.00 | 0.00 | 0.00 | 84 | 1010.9 |
| 20260505210022 | 56 | 124 | 13.0 | 20.9 | 0.00 | 0.00 | 0.00 | 84 | 1011.1 |
| 20260505204555 | 56 | 258 | 8.7 | 20.0 | 0.00 | 0.00 | 0.00 | 84 | 1011.0 |
| 20260505203054 | 57 | 221 | 10.4 | 20.0 | 0.00 | 0.00 | 0.00 | 83 | 1011.1 |
| 20260505201603 | 57 | 271 | 9.6 | 17.4 | 0.00 | 0.00 | 0.00 | 83 | 1011.0 |
| 20260505200025 | 57 | 265 | 7.8 | 21.7 | 0.00 | 0.00 | 0.00 | 83 | 1011.1 |
| 20260505194524 | 57 | 248 | 8.7 | 19.1 | 0.00 | 0.00 | 0.00 | 83 | 1011.3 |
| 20260505193034 | 57 | 266 | 8.7 | 16.5 | 0.00 | 0.00 | 0.00 | 84 | 1011.3 |
| 20260505191608 | 57 | 124 | 9.6 | 18.2 | 0.00 | 0.00 | 0.00 | 84 | 1011.4 |
| 20260505190111 | 57 | 231 | 11.3 | 20.0 | 0.00 | 0.00 | 0.00 | 83 | 1011.5 |
| 20260505184611 | 57 | 124 | 12.2 | 21.7 | 0.00 | 0.00 | 0.00 | 83 | 1011.7 |
| 20260505183104 | 57 | 258 | 11.3 | 18.2 | 0.00 | 0.00 | 0.00 | 83 | 1011.7 |
| 20260505181555 | 57 | 124 | 10.4 | 15.6 | 0.00 | 0.00 | 0.00 | 84 | 1011.8 |
| 20260505180039 | 57 | 124 | 7.0 | 17.4 | 0.00 | 0.00 | 0.00 | 84 | 1011.9 |
| 20260505174527 | 56 | 124 | 9.6 | 18.2 | 0.00 | 0.00 | 0.00 | 84 | 1011.9 |
| 20260505173044 | 57 | 250 | 6.1 | 20.0 | 0.00 | 0.00 | 0.00 | 84 | 1011.9 |
| 20260505171552 | 56 | 124 | 9.6 | 16.5 | 0.00 | 0.00 | 0.00 | 84 | 1011.9 |
| 20260505170045 | 57 | 274 | 7.0 | 20.0 | 0.00 | 0.00 | 0.00 | 84 | 1011.9 |
| 20260505164535 | 57 | 124 | 8.7 | 20.0 | 0.00 | 0.00 | 0.00 | 84 | 1012.2 |
| 20260505163128 | 56 | 124 | 9.6 | 17.4 | 0.00 | 0.00 | 0.00 | 84 | 1012.5 |
| 20260505161559 | 56 | 204 | 7.8 | 14.8 | 0.00 | 0.00 | 0.00 | 84 | 1012.6 |
| 20260505160110 | 56 | 124 | 9.6 | 15.6 | 0.00 | 0.00 | 0.00 | 84 | 1012.8 |
| 20260505153046 | 56 | 214 | 9.6 | 15.6 | 0.00 | 0.00 | 0.00 | 84 | 1012.7 |
| 20260505151552 | 56 | 263 | 8.7 | 16.5 | 0.00 | 0.00 | 0.00 | 84 | 1012.7 |
| 20260505140129 | 55 | 223 | 7.8 | 17.4 | 0.00 | 0.00 | 0.00 | 86 | 1012.4 |
| 20260505130106 | 54 | 256 | 7.8 | 15.6 | 0.00 | 0.00 | 0.00 | 87 | 1012.6 |
| 20260505124605 | 54 | 260 | 7.8 | 16.5 | 0.00 | 0.00 | 0.00 | 86 | 1012.6 |
| 20260505123011 | 55 | 124 | 5.2 | 11.3 | 0.00 | 0.00 | 0.00 | 86 | 1012.5 |
| 20260505121600 | 54 | 268 | 6.1 | 13.9 | 0.00 | 0.00 | 0.00 | 86 | 1012.3 |
| 20260505120006 | 54 | 124 | 5.2 | 13.9 | 0.00 | 0.00 | 0.00 | 87 | 1012.3 |
| 20260505114557 | 54 | 124 | 7.0 | 13.9 | 0.00 | 0.00 | 0.00 | 86 | 1012.4 |
| 20260505113058 | 54 | 124 | 7.0 | 13.9 | 0.00 | 0.00 | 0.00 | 87 | 1012.3 |
| 20260505111548 | 54 | 124 | 9.6 | 14.8 | 0.00 | 0.00 | 0.00 | 87 | 1012.3 |
| 20260505101554 | 52 | 124 | 6.1 | 11.3 | 0.00 | 0.00 | 0.00 | 89 | 1012.0 |
| 20260505100050 | 52 | 124 | 5.2 | 10.4 | 0.00 | 0.00 | 0.00 | 89 | 1011.8 |
| 20260505094554 | 51 | 124 | 6.1 | 10.4 | 0.00 | 0.00 | 0.00 | 89 | 1011.9 |
| 20260505093033 | 51 | 124 | 6.1 | 12.2 | 0.00 | 0.00 | 0.00 | 89 | 1012.0 |
| 20260505091555 | 51 | 124 | 5.2 | 8.7 | 0.00 | 0.00 | 0.00 | 89 | 1011.9 |
| 20260505090048 | 51 | 124 | 4.3 | 9.6 | 0.00 | 0.00 | 0.00 | 90 | 1011.9 |
| 20260505084554 | 51 | 124 | 5.2 | 10.4 | 0.00 | 0.00 | 0.00 | 90 | 1011.9 |
| 20260505083050 | 51 | 124 | 5.2 | 9.6 | 0.00 | 0.00 | 0.00 | 90 | 1011.9 |
| 20260505081523 | 51 | 124 | 4.3 | 8.7 | 0.00 | 0.00 | 0.00 | 90 | 1012.0 |
| 20260505080013 | 51 | 262 | 5.2 | 10.4 | 0.00 | 0.00 | 0.00 | 90 | 1012.0 |
| 20260505074505 | 51 | 124 | 5.2 | 12.2 | 0.00 | 0.00 | 0.00 | 89 | 1012.1 |
| 20260505073036 | 52 | 266 | 8.7 | 13.9 | 0.00 | 0.00 | 0.00 | 89 | 1012.0 |
| 20260505071536 | 52 | 269 | 7.0 | 15.6 | 0.00 | 0.00 | 0.00 | 89 | 1011.9 |
| 20260505070050 | 52 | 124 | 7.0 | 14.8 | 0.00 | 0.00 | 0.00 | 89 | 1012.0 |
| 20260505064512 | 52 | 272 | 8.7 | 15.6 | 0.00 | 0.00 | 0.00 | 89 | 1012.0 |
| 20260505063053 | 51 | 266 | 8.7 | 16.5 | 0.00 | 0.00 | 0.00 | 90 | 1012.0 |
| 20260505061523 | 51 | 250 | 6.1 | 13.9 | 0.00 | 0.00 | 0.00 | 90 | 1012.0 |
| 20260505060106 | 51 | 272 | 7.8 | 15.6 | 0.00 | 0.00 | 0.00 | 90 | 1012.0 |